Location: Unspecified
(38.9119°N, 0.0000°E)
Time: 03:21:20
(UTC+00:00)

OTV 5 (USA 277) - Visible Passes

Search period start: 23 October 2019 00:00
Search period end: 02 November 2019 00:00
Orbit: 310 x 324 km, 54.5° (Epoch: 17 October)

Date Brightness Start Highest point End Pass type
(mag) Time Alt. Az. Time Alt. Az. Time Alt. Az.
26 Oct ? 18:08:42 10° SSE 18:09:16 12° SE 18:09:16 12° SE visible
27 Oct ? 18:21:44 10° SSW 18:24:02 35° SE 18:24:02 35° SE visible
28 Oct ? 18:36:04 10° SW 18:38:40 62° NW 18:38:40 62° NW visible
29 Oct ? 18:51:09 10° W 18:53:10 23° NW 18:53:10 23° NW visible
30 Oct ? 17:30:54 10° SW 17:33:35 68° SE 17:36:18 10° NE visible
30 Oct ? 19:07:10 10° NW 19:07:33 11° NW 19:07:33 11° NW visible
31 Oct ? 17:45:37 10° WSW 17:48:09 36° NW 17:50:45 10° NNE visible
01 Nov ? 18:01:05 10° WNW 18:02:54 16° NNW 18:04:43 10° N visible
